S51UL-6 Weather Reports


Display with metric or nautical units.
time (UTC)temp
F
wind
direction
speed
MPH
gust
MPH
rain 1hr
in
rain 24hr
in
rain mn
in
humidity
%
barometer
mb
20260508133242 77 135 1.0 4.0 0.00 0.00 0.00 42 1016.2
20260508132741 77 23 2.0 6.0 0.00 0.00 0.00 42 1016.4
20260508132242 76 135 1.0 6.0 0.00 0.00 0.00 42 1016.4
20260508131741 75 135 0.0 2.0 0.00 0.00 0.00 42 1016.6
20260508131242 75 158 0.0 2.0 0.00 0.00 0.00 42 1016.6
20260508130741 76 158 2.0 4.0 0.00 0.00 0.00 42 1016.7
20260508130241 77 158 3.0 4.0 0.00 0.00 0.00 42 1016.6
20260508125742 77 135 1.0 4.0 0.00 0.00 0.00 43 1016.6
20260508125241 76 113 0.0 2.0 0.00 0.00 0.00 43 1016.7
20260508124242 74 180 5.0 7.0 0.00 0.00 0.00 42 1017.0
20260508123742 75 158 4.0 7.0 0.00 0.00 0.00 42 1016.9
20260508123242 75 158 3.0 5.0 0.00 0.00 0.00 41 1016.9
20260508122242 77 135 2.0 4.0 0.00 0.00 0.00 41 1017.1
20260508121742 78 158 2.0 6.0 0.00 0.00 0.00 40 1017.2
20260508120742 79 135 2.0 4.0 0.00 0.00 0.00 40 1017.0
20260508115742 79 158 1.0 4.0 0.00 0.00 0.00 40 1017.0
20260508113243 77 135 3.0 4.0 0.00 0.00 0.00 42 1017.2
20260508112742 77 135 3.0 4.0 0.00 0.00 0.00 41 1017.1
20260508112242 77 158 1.0 3.0 0.00 0.00 0.00 42 1017.1
20260508111244 77 158 2.0 4.0 0.00 0.00 0.00 43 1017.3
20260508105743 74 203 2.0 7.0 0.00 0.00 0.00 45 1017.5
20260508105243 73 135 0.0 0.0 0.00 0.00 0.00 47 1017.4
20260508104743 73 158 2.0 6.0 0.00 0.00 0.00 46 1017.5
20260508104243 73 180 3.0 6.0 0.00 0.00 0.00 48 1017.5
20260508103743 72 180 1.0 4.0 0.00 0.00 0.00 48 1017.5
20260508102743 71 158 3.0 7.0 0.00 0.00 0.00 47 1017.8
20260508101743 70 158 5.0 7.0 0.00 0.00 0.00 49 1017.8
20260508101243 70 135 2.0 7.0 0.00 0.00 0.00 47 1017.7
20260508100743 70 158 1.0 4.0 0.00 0.00 0.00 49 1017.9
20260508095743 70 135 1.0 4.0 0.00 0.00 0.00 48 1018.0
20260508095243 70 158 0.0 0.0 0.00 0.00 0.00 49 1018.0
20260508094744 70 158 0.0 0.0 0.00 0.00 0.00 52 1018.1
20260508094244 69 180 0.0 0.0 0.00 0.00 0.00 53 1018.1
20260508093745 69 135 0.0 0.0 0.00 0.00 0.00 53 1018.3
20260508093244 69 135 1.0 4.0 0.00 0.00 0.00 55 1018.2
20260508092744 69 158 3.0 8.0 0.00 0.00 0.00 55 1018.2
20260508092244 69 158 3.0 8.0 0.00 0.00 0.00 54 1018.2
20260508091745 69 158 4.0 6.0 0.00 0.00 0.00 54 1018.1
20260508091244 69 158 4.0 6.0 0.00 0.00 0.00 54 1018.3
20260508090744 69 135 0.0 2.0 0.00 0.00 0.00 55 1018.2
20260508085745 68 158 3.0 6.0 0.00 0.00 0.00 55 1018.0
20260508084745 68 158 1.0 3.0 0.00 0.00 0.00 55 1018.1
20260508084244 68 158 1.0 4.0 0.00 0.00 0.00 55 1018.1
20260508083744 68 135 2.0 4.0 0.00 0.00 0.00 55 1018.1
20260508083244 69 135 2.0 5.0 0.00 0.00 0.00 56 1018.0
20260508082745 69 135 0.0 0.0 0.00 0.00 0.00 58 1018.1
20260508082245 68 135 0.0 0.0 0.00 0.00 0.00 59 1018.0
20260508081744 68 158 0.0 0.0 0.00 0.00 0.00 61 1018.2
20260508081245 66 158 0.0 0.0 0.00 0.00 0.00 61 1018.0
20260508080245 66 180 0.0 4.0 0.00 0.00 0.00 64 1018.0
20260508075745 65 158 0.0 0.0 0.00 0.00 0.00 66 1018.2
20260508075245 65 158 0.0 0.0 0.00 0.00 0.00 70 1017.9
20260508074745 63 158 0.0 0.0 0.00 0.00 0.00 72 1018.0
20260508074245 61 0 0.0 0.0 0.00 0.00 0.00 75 1017.9
20260508073745 60 45 0.0 0.0 0.00 0.00 0.00 75 1018.0
20260508073246 59 23 0.0 0.0 0.00 0.00 0.00 76 1018.1
20260508072745 58 23 0.0 0.0 0.00 0.00 0.00 78 1018.1
20260508072246 57 23 0.0 0.0 0.00 0.00 0.00 78 1018.0
20260508071745 56 23 0.0 0.0 0.00 0.00 0.00 79 1018.0
20260508070745 56 158 0.0 0.0 0.00 0.00 0.00 81 1017.9
20260508070245 55 23 0.0 0.0 0.00 0.00 0.00 81 1018.0
20260508065246 54 23 0.0 0.0 0.00 0.00 0.00 81 1018.0
20260508064746 54 23 0.0 0.0 0.00 0.00 0.00 82 1018.0
20260508064246 53 23 0.0 0.0 0.00 0.00 0.00 83 1018.0
20260508063746 53 23 0.0 0.0 0.00 0.00 0.00 83 1018.0
20260508063247 53 23 0.0 0.0 0.00 0.00 0.00 84 1017.9
20260508062746 52 23 0.0 0.0 0.00 0.00 0.00 85 1017.9
20260508062246 52 0 0.0 0.0 0.00 0.00 0.00 85 1018.0
20260508061747 52 0 0.0 0.0 0.00 0.00 0.00 86 1017.9
20260508061246 51 23 1.0 4.0 0.00 0.00 0.00 86 1017.9
20260508060746 51 0 1.0 4.0 0.00 0.00 0.00 87 1017.8
20260508060247 50 23 0.0 0.0 0.00 0.00 0.00 87 1017.8
20260508054747 48 23 1.0 2.0 0.00 0.00 0.00 88 1017.6
20260508054247 47 23 0.0 2.0 0.00 0.00 0.00 87 1017.9
20260508053747 46 23 0.0 0.0 0.00 0.00 0.00 87 1017.8
20260508053247 46 23 0.0 0.0 0.00 0.00 0.00 87 1017.7
20260508052747 44 315 0.0 0.0 0.00 0.00 0.00 87 1017.8
20260508052247 44 315 0.0 0.0 0.00 0.00 0.00 87 1017.6
20260508051748 44 315 0.0 0.0 0.00 0.00 0.00 87 1017.8
20260508051248 43 315 0.0 0.0 0.00 0.00 0.00 87 1017.7
20260508050748 42 315 0.0 0.0 0.00 0.00 0.00 87 1017.9
20260508050248 42 315 0.0 0.0 0.00 0.00 0.00 86 1017.8
20260508045747 41 315 0.0 0.0 0.00 0.00 0.00 86 1017.7
20260508045247 41 315 0.0 0.0 0.00 0.00 0.00 86 1017.5
20260508044747 40 315 0.0 0.0 0.00 0.00 0.00 86 1017.8
20260508044247 40 315 0.0 0.0 0.00 0.00 0.00 85 1017.5
20260508043747 40 315 0.0 0.0 0.00 0.00 0.00 85 1017.7
20260508043247 39 315 0.0 0.0 0.00 0.00 0.00 85 1017.5
20260508042747 39 315 0.0 0.0 0.00 0.00 0.00 85 1017.6
20260508042247 39 315 0.0 0.0 0.00 0.00 0.00 85 1017.5
20260508041747 39 315 0.0 0.0 0.00 0.00 0.00 85 1017.6
20260508041247 39 315 0.0 0.0 0.00 0.00 0.00 85 1017.4
20260508040747 39 315 0.0 0.0 0.00 0.00 0.00 85 1017.4
20260508035749 38 315 0.0 0.0 0.00 0.00 0.00 85 1017.4
20260508035248 38 315 0.0 0.0 0.00 0.00 0.00 85 1017.6
20260508034748 39 315 0.0 0.0 0.00 0.00 0.00 85 1017.5
20260508033748 39 315 0.0 0.0 0.00 0.00 0.00 85 1017.5
20260508032248 39 315 0.0 0.0 0.00 0.00 0.00 85 1017.4
20260508030749 40 315 0.0 0.0 0.00 0.00 0.00 85 1017.3
20260508030248 40 315 0.0 0.0 0.00 0.00 0.00 84 1017.3
20260508025748 40 315 0.0 0.0 0.00 0.00 0.00 84 1017.4
20260508024748 41 315 0.0 0.0 0.00 0.00 0.00 84 1017.4
20260508024249 41 315 0.0 0.0 0.00 0.00 0.00 84 1017.1
20260508023749 41 315 0.0 0.0 0.00 0.00 0.00 84 1017.1
20260508023248 41 315 0.0 0.0 0.00 0.00 0.00 84 1017.1
20260508022749 41 315 0.0 0.0 0.00 0.00 0.00 84 1016.9
20260508022249 41 315 0.0 0.0 0.00 0.00 0.00 84 1017.1
20260508021751 41 315 0.0 0.0 0.00 0.00 0.00 84 1017.1
20260508021249 41 315 0.0 0.0 0.00 0.00 0.00 83 1017.0
20260508015749 41 315 0.0 0.0 0.00 0.00 0.00 83 1016.8
20260508014749 41 315 0.0 0.0 0.00 0.00 0.00 83 1017.0
20260508014249 41 315 0.0 0.0 0.00 0.00 0.00 83 1017.0
20260508013250 42 315 0.0 0.0 0.00 0.00 0.00 83 1016.9
20260508012750 42 315 0.0 0.0 0.00 0.00 0.00 83 1016.9
20260508010750 42 315 0.0 0.0 0.00 0.00 0.00 82 1016.7
20260508010248 42 315 0.0 0.0 0.00 0.00 0.00 82 1016.6
20260508005750 42 315 0.0 0.0 0.00 0.00 0.00 82 1016.6
20260508004751 42 315 0.0 0.0 0.00 0.00 0.00 81 1016.6
20260508003251 43 315 0.0 0.0 0.00 0.00 0.00 81 1016.7
20260508001753 43 315 0.0 0.0 0.00 0.00 0.00 80 1017.0
20260508001250 43 315 0.0 0.0 0.00 0.00 0.00 80 1016.8
20260507235750 44 315 0.0 0.0 0.00 0.00 0.00 80 1017.0
20260507233252 45 315 0.0 0.0 0.00 0.00 0.00 79 1017.1
20260507232751 45 315 0.0 0.0 0.00 0.00 0.00 79 1017.1
20260507232251 46 315 0.0 0.0 0.00 0.00 0.00 79 1017.3
20260507231753 46 315 0.0 0.0 0.00 0.00 0.00 78 1017.1
20260507231251 46 315 0.0 0.0 0.00 0.00 0.00 78 1017.4
20260507230253 46 315 0.0 0.0 0.00 0.00 0.00 77 1017.4
20260507225252 47 315 0.0 0.0 0.00 0.00 0.00 76 1017.4
20260507224255 47 315 0.0 0.0 0.00 0.00 0.00 76 1017.4
20260507221751 49 315 0.0 0.0 0.00 0.00 0.00 75 1017.2
20260507214752 50 315 0.0 0.0 0.00 0.00 0.00 73 1017.5
20260507211252 53 315 0.0 0.0 0.00 0.00 0.00 70 1017.4
20260507204752 54 315 0.0 0.0 0.00 0.00 0.00 70 1017.1
20260507204253 54 315 0.0 0.0 0.00 0.00 0.00 69 1017.3
20260507200753 55 23 0.0 0.0 0.00 0.00 0.00 67 1017.0
20260507200253 55 315 0.0 0.0 0.00 0.00 0.00 67 1017.0
20260507194753 55 23 0.0 0.0 0.00 0.00 0.00 66 1016.7
20260507194253 55 23 0.0 0.0 0.00 0.00 0.00 66 1016.6
20260507193253 56 0 0.0 0.0 0.00 0.00 0.00 65 1016.8
20260507192754 56 23 0.0 0.0 0.00 0.00 0.00 65 1016.5
20260507192253 56 23 0.0 0.0 0.00 0.00 0.00 65 1016.2
20260507191753 56 23 0.0 0.0 0.00 0.00 0.00 65 1016.1
20260507190753 56 315 0.0 1.0 0.00 0.00 0.00 64 1016.1
20260507190253 56 293 1.0 5.0 0.00 0.00 0.00 63 1015.8
20260507185755 56 338 1.0 5.0 0.00 0.00 0.00 62 1015.6
20260507185253 57 23 1.0 4.0 0.00 0.00 0.00 62 1015.4
20260507184255 57 0 5.0 16.0 0.00 0.00 0.00 61 1015.1
20260507183754 58 0 7.0 16.0 0.00 0.00 0.00 60 1015.3
20260507182754 60 338 2.0 5.0 0.00 0.00 0.00 58 1015.1
20260507182252 60 338 2.0 9.0 0.00 0.00 0.00 58 1014.8
20260507181754 61 0 5.0 9.0 0.00 0.00 0.00 58 1014.5
20260507181254 62 0 6.0 7.0 0.00 0.00 0.00 57 1014.1
20260507180754 63 0 4.0 7.0 0.00 0.00 0.00 56 1013.9
20260507180255 63 0 4.0 7.0 0.00 0.00 0.00 56 1013.6
20260507175754 64 0 2.0 4.0 0.00 0.00 0.00 57 1013.3
20260507175255 64 158 1.0 6.0 0.00 0.00 0.00 59 1013.2
20260507173755 65 158 0.0 0.0 0.00 0.00 0.00 59 1011.9
20260507173254 65 158 0.0 0.0 0.00 0.00 0.00 59 1011.7
20260507172755 65 158 1.0 4.0 0.00 0.00 0.00 58 1011.7
20260507172255 66 158 0.0 4.0 0.00 0.00 0.00 57 1011.4
20260507171755 66 158 1.0 4.0 0.00 0.00 0.00 57 1011.3
20260507171022 67 135 3.0 7.0 0.00 0.00 0.00 56 1011.4
20260507170755 67 135 3.0 7.0 0.00 0.00 0.00 56 1011.4
20260507170255 67 158 4.0 8.0 0.00 0.00 0.00 56 1011.3
20260507165755 67 158 6.0 8.0 0.00 0.00 0.00 56 1011.2
20260507165255 67 158 6.0 8.0 0.00 0.00 0.00 57 1011.4
20260507163255 68 135 6.0 11.0 0.00 0.00 0.00 56 1011.4
20260507162756 68 158 5.0 7.0 0.00 0.00 0.00 56 1011.3
20260507162255 68 158 6.0 12.0 0.00 0.00 0.00 55 1011.3
20260507162009 68 180 9.0 12.0 0.00 0.00 0.00 55 1011.2
20260507161755 68 180 9.0 12.0 0.00 0.00 0.00 55 1011.2
20260507161256 69 158 9.0 9.0 0.00 0.00 0.00 55 1011.1
20260507160256 69 158 6.0 8.0 0.00 0.00 0.00 54 1011.0
20260507155256 69 158 4.0 6.0 0.00 0.00 0.00 54 1011.1
20260507153756 69 135 4.0 7.0 0.00 0.00 0.00 55 1011.0
20260507153257 69 135 5.0 9.0 0.00 0.00 0.00 55 1010.9
20260507152756 69 158 5.0 9.0 0.00 0.00 0.00 57 1011.1
20260507152256 69 180 4.0 7.0 0.00 0.00 0.00 58 1011.1
20260507151756 69 180 6.0 8.0 0.00 0.00 0.00 58 1011.1
20260507151256 69 135 7.0 9.0 0.00 0.00 0.00 58 1011.1
20260507150756 69 158 6.0 9.0 0.00 0.00 0.00 58 1011.0
20260507150256 69 180 7.0 11.0 0.00 0.00 0.00 58 1011.1
20260507145756 69 158 11.0 15.0 0.00 0.00 0.00 57 1011.1
20260507145256 69 158 9.0 15.0 0.00 0.00 0.00 57 1011.2
20260507144257 70 158 10.0 13.0 0.00 0.00 0.00 56 1011.1
20260507143756 71 158 7.0 13.0 0.00 0.00 0.00 56 1011.2
20260507143256 71 135 5.0 8.0 0.00 0.00 0.00 56 1011.3
20260507142757 71 158 6.0 7.0 0.00 0.00 0.00 57 1011.1
20260507142258 71 135 5.0 7.0 0.00 0.00 0.00 57 1011.3
20260507140757 71 158 12.0 13.0 0.00 0.00 0.00 59 1011.4
20260507140257 70 135 10.0 13.0 0.00 0.00 0.00 59 1011.3
20260507135257 68 158 7.0 13.0 0.00 0.00 0.00 61 1011.5
20260507134758 68 180 8.0 13.0 0.00 0.00 0.00 60 1011.5
20260507134257 69 158 6.0 8.0 0.00 0.00 0.00 59 1011.8
20260507133757 69 158 6.0 7.0 0.00 0.00 0.00 58 1011.6
20260507133258 69 158 7.0 15.0 0.00 0.00 0.00 57 1011.6